• Join FlightAware (Why Join?)
  • Login
  • US Flag 
11:17AM EST


 

Airport Tracker/Info


-or-


 

Live Flight TrackerFlight Track Log ✈ WBR2634 ✈ 15-Jul-2013 ✈ KBRL - KORD

Flight Track Log - Related Links

Times and Time Zones

All times are in EDT time to prevent confusion due to time zone crossing. See the WBR2634 flight status page for this flight to view local times or setup timezone preferences in your user account.

Time Position Orientation Groundspeed Altitude Reporting Facility
EDT Latitude Longitude Course Direction KTS MPH feet Rate Location/Type
05:40PM 40.7586 -91.0778 73° East 124 143 2,300  Level Chicago Center
05:41PM 40.7725 -91.0306 69° East 117 135 3,100 720 Climbing Chicago Center
05:42PM 40.8536 -90.7927 57° Northeast  Level FlightAware Approximate
05:42PM 40.7844 -90.9875 70° East 120 138 3,900  Level Chicago Center
05:43PM 40.8689 -90.7410 72° East  Level FlightAware Approximate
05:43PM 40.7958 -90.9447 71° East 123 142 4,600  Level Chicago Center
05:44PM 40.8825 -90.6865 72° East  Level FlightAware Approximate
05:44PM 40.8086 -90.8992 70° East 126 145 5,100  Level Chicago Center
05:45PM 40.8954 -90.6317 73° East  Level FlightAware Approximate
05:45PM 40.8208 -90.8539 70° East 130 150 5,800  Level Chicago Center
05:46PM 40.8328 -90.8072 71° East 132 152 6,600 720 Climbing Chicago Center
05:47PM 40.8492 -90.7511 69° East 136 157 7,300 660 Climbing Chicago Center
05:48PM 40.8617 -90.7036 71° East 137 158 8,000 600 Climbing Chicago Center
05:49PM 40.8758 -90.6569 68° East 137 158 8,600 480 Climbing Chicago Center
05:50PM 40.8878 -90.6064 73° East 143 165 9,000 180 Climbing Chicago Center
05:51PM 40.9025 -90.5528 70° East 153 176 9,000  Level Chicago Center
05:52PM 40.9175 -90.4986 70° East 156 180 9,000  Level Chicago Center
05:53PM 40.9331 -90.4442 69° East 157 181 9,000  Level Chicago Center
05:55PM 40.9503 -90.3786 71° East 157 181 9,000  Level Chicago Center
05:56PM 40.9636 -90.3242 72° East 156 180 9,000  Level Chicago Center
05:57PM 40.9758 -90.2683 74° East 157 181 9,000  Level Chicago Center
05:58PM 40.9900 -90.2139 71° East 156 180 9,100  Climbing Chicago Center
05:59PM 41.0050 -90.1614 69° East 153 176 9,100  Level Chicago Center
06:00PM 41.0219 -90.1069 68° East 158 182 9,100  Level Chicago Center
06:01PM 41.0406 -90.0408 70° East 159 183 9,100 -60 Level Chicago Center
06:02PM 41.0558 -89.9861 70° East 158 182 9,000 -60 Descending Chicago Center
06:03PM 41.0711 -89.9317 70° East 158 182 9,000  Level Chicago Center
06:04PM 41.0864 -89.8772 70° East 157 181 9,100  Climbing Chicago Center
06:05PM 41.1006 -89.8217 71° East 158 182 9,100  Level Chicago Center
06:06PM 41.1150 -89.7650 71° East 161 185 9,100  Level Chicago Center
06:07PM 41.1300 -89.7092 70° East 161 185 9,100  Level Chicago Center
06:08PM 41.1467 -89.6431 71° East 159 183 9,100  Level Chicago Center
06:09PM 41.1611 -89.5878 71° East 159 183 9,100  Level Chicago Center
06:10PM 41.1856 -89.5386 57° Northeast 159 183 9,100  Level Chicago Center
06:11PM 41.2089 -89.4875 59° Northeast 161 185 9,100 -60 Level Chicago Center
06:12PM 41.2314 -89.4356 60° Northeast 163 188 9,000 -60 Descending Chicago Center
06:13PM 41.2553 -89.3869 57° Northeast 158 182 9,000  Level Chicago Center
06:14PM 41.2822 -89.3244 60° Northeast 160 184 9,100  Climbing Chicago Center
06:15PM 41.3044 -89.2739 60° Northeast 160 184 9,000 -60 Descending Chicago Center
06:16PM 41.3261 -89.2231 60° Northeast 159 183 9,000  Level Chicago Center
06:17PM 41.3494 -89.1761 56° Northeast 156 180 9,100  Climbing Chicago Center
06:18PM 41.3742 -89.1275 56° Northeast 157 181 9,100  Level Chicago Center
06:19PM 41.4014 -89.0678 59° Northeast 159 183 9,100  Level Chicago Center
06:20PM 41.4244 -89.0153 60° Northeast 163 188 9,100  Level Chicago Center
06:21PM 41.4481 -88.9631 59° Northeast 164 189 9,100  Level Chicago Center
06:22PM 41.4686 -88.9106 62° Northeast 162 186 9,100 -240 Level Chicago Center
06:24PM 41.4858 -88.8586 66° East 155 178 8,700 -480 Descending Chicago Center
06:25PM 41.5153 -88.7983 57° Northeast 160 184 8,100 -300 Descending Chicago Center
06:26PM 41.5383 -88.7497 58° Northeast 157 181 8,100 -60 Level Chicago Center
06:27PM 41.5619 -88.6997 58° Northeast 158 182 8,000  Descending Chicago Center
06:28PM 41.5842 -88.6519 58° Northeast 153 176 8,100  Climbing Chicago Center
06:29PM 41.6136 -88.6089 48° Northeast 158 182 8,000  Descending Chicago Center
06:30PM 41.6381 -88.5614 55° Northeast 157 181 8,100  Climbing Chicago Center
06:31PM 41.6686 -88.5047 54° Northeast 158 182 8,000 -240 Descending Chicago Center
06:32PM 41.6919 -88.4561 57° Northeast 156 180 7,700 -480 Descending Chicago Center
06:33PM 41.7156 -88.4061 58° Northeast 160 184 7,100 -540 Descending Chicago Center
06:34PM 41.7494 -88.3653 42° Northeast 166 191 6,600 -540 Descending Chicago Center
06:35PM 41.7844 -88.3244 41° Northeast 167 192 6,000 -720 Descending Chicago Center
06:36PM 41.8036 -88.2625 67° East 159 183 5,200 -540 Descending Chicago Center
06:37PM 41.8022 -88.2050 92° East 157 181 5,000 -480 Descending Chicago Center
06:38PM 41.8144 -88.1497 73° East 155 178 4,300 -660 Descending Chicago Center
06:39PM 41.8292 -88.0889 72° East 162 186 3,700 -660 Descending Chicago Center
06:40PM 41.8558 -88.0339 57° Northeast 173 199 3,000 -720 Descending Chicago Center
06:41PM 41.8833 -87.9833 54° Northeast 171 197 2,400 -780 Descending Chicago TRACON
06:42PM 41.9167 -87.9500 37° Northeast 165 190 1,700 -780 Descending Chicago TRACON
06:43PM 41.9500 -87.9000 48° Northeast 146 168 900 -840 Descending Chicago TRACON
06:45PM 41.9667 -87.9000 56° Northeast  Level FlightAware Approximate